www.pogodaiklimat.ru

Погода и климат >> Архив погоды >> Ирак >> Nasiriya


ПОГОДА в Nasiriya

  • Прогноз погоды в Nasiriya
  • Монитор погоды в Nasiriya
  • Климат города

АРХИВ ПОГОДЫ в Nasiriya

Время (UTC), дата Ветер
(напр.,м/с)
 
Видим.   Явления Облачность Т
(С)
Тd
(С)
f
(%)
Тe
(С)
Тes
(С)
Комфортность P
(гПа)
Po
(гПа)
Тmin
(С)
Tmax
(С)
R
(мм)
R24
(мм)
S
(см)
21 10.10 З 3 10 км ясно +27.0 +7.6 29 +27 +27 жарко 1009.2 1009.0
00 11.10 З 2 10 км ясно +25.4 +9.8 37 +26 +26 жарко 1009.9 1010.0
03 11.10 З 4 10 км ясно +23.8 +10.4 43 +25 +25 комфорт 1011.1 1011.0
06 11.10 СЗ 4 10 км ясно +29.8 +12.5 35 +31 +35 жарко 1012.6 1013.0 +23.0
09 11.10 З 6 6000 м пыль ясно +35.0 +10.3 22 +34 +39 очень
жарко
1012.0 1012.0
12 11.10 СЗ 5 8000 м пыль ясно +34.4 +9.3 22 +33 +36 жарко 1011.3 1011.0
15 11.10 СЗ 3 8000 м пыль ясно +32.2 +10.9 27 +32 +32 жарко 1012.0 1012.0
18 11.10 СЗ 2 10 км ясно +28.0 +11.3 35 +29 +29 жарко 1013.4 1013.0 +36.5
21 11.10 СЗ 4 10 км ясно +25.2 +10.0 38 +26 +26 жарко 1014.1 1014.0
00 12.10 С 4 10 км ясно +23.6 +8.7 39 +24 +24 комфорт 1013.6 1014.0
03 12.10 СЗ 2 10 км ясно +21.2 +9.7 48 +23 +23 комфорт 1014.2 1014.0
06 12.10 СЗ 5 10 км ясно +26.4 +9.3 34 +27 +30 жарко 1015.4 1015.0 +20.8
09 12.10 С 4 10 км ясно +33.2 +8.8 22 +32 +41 жарко 1014.8 1015.0
12 12.10 СЗ 5 10 км ясно +35.0 +7.4 18 +33 +36 жарко 1013.4 1013.0
15 12.10 СЗ 2 10 км ясно +31.6 +9.3 25 +31 +31 жарко 1013.8 1014.0
18 12.10 СЗ 3 10 км ясно +28.4 +9.4 30 +28 +28 жарко 1014.7 1015.0 +35.5
00 13.10 СЗ 4 10 км ясно +24.0 +6.6 33 +24 +24 комфорт 1012.8 1013.0
03 13.10 СЗ 3 10 км ясно +22.0 +8.3 41 +23 +23 комфорт 1013.5 1014.0
06 13.10 С 1 10 км ясно +27.0 +5.8 26 +26 +33 жарко 1014.7 1015.0 +21.4
09 13.10 С 2 10 км ясно +35.4 +5.6 16 +33 +46 жарко 1012.9 1013.0
12 13.10 З 2 10 км ясно +37.4 +10.3 19 +36 +41 очень
жарко
1010.8 1011.0
15 13.10 СЗ 1 10 км ясно +33.2 +13.0 29 +34 +34 очень
жарко
1010.6 1011.0
18 13.10 СЗ 1 10 км ясно +28.0 +10.8 34 +29 +29 жарко 1011.5 1012.0 +37.6
21 13.10 С 3 10 км ясно +28.0 +8.2 29 +28 +28 жарко 1011.1 1011.0
00 14.10 С 2 10 км ясно +25.8 +7.3 31 +26 +26 жарко 1010.9 1011.0
03 14.10 СЗ 2 10 км ясно +24.0 +7.7 35 +24 +24 комфорт 1011.6 1012.0
09 14.10 СВ 1 10 км ясно +35.4 +7.6 18 +33 +48 жарко 1011.5 1012.0
12 14.10 З 2 10 км ясно +37.8 +11.0 20 +37 +42 очень
жарко
1009.7 1010.0
15 14.10 ЮВ 1 10 км ясно +32.8 +14.7 34 +35 +35 душно 1009.3 1009.0
18 14.10 СВ 2 10 км ясно +28.0 +12.7 39 +29 +29 жарко 1010.0 1010.0 +38.0
21 14.10 СВ 2 10 км ясно +28.2 +10.6 33 +29 +29 жарко 1010.3 1010.0
00 15.10 В 1 10 км ясно +25.4 +10.3 39 +26 +26 жарко 1009.9 1010.0
03 15.10 ЮВ 1 10 км ясно +20.2 +6.2 40 +22 +22 комфорт 1011.0 1011.0
06 15.10 Ю 1 10 км ясно +29.0 +9.8 30 +29 +36 жарко 1012.3 1012.0 +20.0
12 15.10 В 2 10 км ясно +39.2 +10.8 18 +38 +43 очень
жарко
1009.7 1010.0
15 15.10 З 1 10 км ясно +34.4 +9.8 22 +33 +33 жарко 1000.0 1000.0
18 15.10 З 1 10 км ясно +27.8 +10.0 33 +28 +28 жарко 1010.9 1011.0 +39.6
21 15.10 СЗ 2 10 км ясно +27.2 +7.9 30 +27 +27 жарко 1011.3 1011.0
00 16.10 Ю 1 10 км ясно +22.4 +9.4 44 +24 +24 комфорт 1011.2 1011.0
03 16.10 СЗ 1 10 км ясно +22.0 +9.8 46 +24 +24 комфорт 1012.1 1012.0
06 16.10 С 1 8000 м пыль ясно +28.2 +9.0 30 +28 +35 жарко 1013.9 1014.0 +21.5
09 16.10 СЗ 3 8000 м пыль ясно +34.2 +6.4 18 +32 +42 жарко 1012.9 1013.0
12 16.10 З 1 10 км ясно +36.0 +6.9 17 +34 +40 очень
жарко
1010.8 1011.0
15 16.10 СЗ 2 10 км ясно +32.6 +10.5 26 +32 +32 жарко 1010.7 1011.0
18 16.10 СЗ 2 10 км ясно +29.2 +9.1 28 +29 +29 жарко 1012.8 1013.0 +36.6
21 16.10 С 2 10 км ясно +27.0 +7.0 28 +27 +27 жарко 1011.9 1012.0
00 17.10 С 3 10 км ясно +25.4 +4.8 27 +25 +25 комфорт 1011.2 1011.0
03 17.10 ЮЗ 3 10 км ясно +24.0 +4.8 29 +24 +24 комфорт 1012.0 1012.0
06 17.10 Ю 3 8000 м пыль ясно +27.8 +6.1 25 +27 +32 жарко 1013.8 1014.0 +2.3
09 17.10 З 2 10 км ясно +33.2 +8.2 21 +32 +44 жарко 1013.4 1013.0
12 17.10 ЮВ 5 10 км ясно +35.0 +6.8 18 +33 +36 жарко 1011.2 1011.0

 

Местоположение метеостанции Nasiriya (Ирак): широта 31.08 долгота 46.23 высота над уровнем моря 3 м.

В архиве по умолчанию представлена погода в Nasiriya за последнюю неделю. Архивные данные за месяц целиком и за предыдущие месяцы, начиная с января 2011 года, Вы можете получить, выбрав интересующий диапазон дат из раскрывающегося списка и нажав кнопку "Ввод!".

Внимание! Время в таблицах - всемирное. Для получения местного времени необходимо прибавить поправку, которая в Nasiriya равна 3 ч.

Смотрите также архив погоды в соседних городах и на ближайших метеорологических станциях:

Погода в Rifai (Ирак) (72 км)
Погода в Samawah (Ирак) (95 км)
Погода в Kut-Al-Hai (Ирак) (122 км)
Погода в Amarah (Ирак) (124 км)
Погода в Diwaniya (Ирак) (155 км)
Погода в Basrah (Ирак) (159 км)
Погода в Basrah Airport (Ирак) (161 км)
Погода в Ali Al-Gharbi (Ирак) (161 км)
Погода в Ubaydah Bin Al Jarrah (Ирак) (163 км)
Погода в Mitribah (Кувейт) (178 км)

Пояснения к столбцам:

Ветер - указаны скорость ветра в м/с - средняя за 10 мин, порывы в срок и между сроками (в фигурных скобках) и направление, откуда дует ветер: С - северный, СВ - северо-восточный, В - восточный, ЮВ - юго-восточный, Ю - южный, ЮЗ - юго-западный, З - западный, СЗ - северо-западный.
Видимость - горизонтальная дальность видимости в метрах или километрах. При видимости от 1 до 10 км при отсутствии осадков обычно наблюдается дымка, при ухудшении видимости до 1 км и менее - туман. В сухую погоду видимость может ухудшаться дымом, пылью или мглою.
Явления - указаны атмосферные явления, наблюдавшиеся в срок или в последний час перед сроком; фигурными скобками обозначены явления, наблюдавшиеся между сроками (за 1-3 часа до срока); квадратными скобками обозначены град или гололедные отложения с указанием их диаметра в мм.
Облачность - указаны через наклонную черту общая и нижняя облачность в баллах и высота нижней границы облаков в метрах; квадратными скобками обозначены формы облаков: Ci - перистые, Cs - перисто-слоистые, Cc - перисто-кучевые, Ac - высококучевые, As - высокослоистые, Sc - слоисто-кучевые, Ns - слоисто-дождевые, Cu - кучевые, Cb - кучево-дождевые. Подробнее классификацию облаков см. в Атласе облаков (PDF).
T - Температура воздуха - температура, измеренная на высоте 2 м над землей.
Td - Температура точки росы - температура, при понижении до которой содержащийся в воздухе водяной пар достигнет насыщения.
f - Относительная влажность воздуха - влажноcть воздуха, измеренная на высоте 2 м над землей.
Te - Эффективная температура - температура, которую ощущает одетый по сезону человек в тени. Характеристика душности погоды. При расчете учитывается влияние влажности воздуха и скорости ветра на теплоощущения человека.
Tes - Эффективная температура на солнце - температура, которую ощущает человек, с поправкой на солнечный нагрев. Характеристика знойности погоды. Зависит от высоты солнца над горизонтом, облачности и скорости ветра. Ночью, в пасмурную погоду, а также при ветре 12 м/с и более поправка равна нулю.
P - Атмосферное давление - приведенное к уровню моря атмосферное давление.
Po - Атмосферное давление - измеренное на уровне метеостанции атмосферное давление.
Tmin - Минимальная температура - минимум температуры воздуха на высоте 2 м над землей.
Tmax - Максимальная температура - максимум температуры воздуха на высоте 2 м над землей.
R - Количество осадков - Количество выпавших осадков за период времени, мм. При наведении курсора мыши на число - период времени, за который выпало указанное количество осадков.
R24 - Количество осадков - Количество выпавших осадков за 24 часа, мм.
S - Снежный покров - Высота снежного покрова, см. При наведении курсора мыши на число - состояние снежного покрова и степень покрытия местности в баллах.